Flag for U.S.A. Weather past 2 weeks in Paterson, New Jersey, U.S.A.

Now
89 °F

Passing clouds.


Feels Like: 87 °F
Forecast: 71 / 88 °F
Wind: 10 mph from Northwest

Location: Essex County Airport

Current Time: Jul 31, 2015 at 3:59:37 PM

Latest Report: Jul 31, 2015 at 2:53 PM


Visibility: 10 mi

Pressure: 29.85 "Hg

Humidity: 30%

Dew point: 54 °F

Location of PatersonLocation

Historic Weather in Paterson — Graph

°F

Paterson temperature yesterday

Maximum temperature yesterday: 87 °F (at 1:53 PM)
Minimum temperature yesterday: 75 °F (at 11:53 PM)
Average temperature yesterday: 79 °F

Past Weeks' High & Low Weather Summary

 TemperatureHumidityPressure
High95 °F (Jul 19, 3:53 PM)94% (Jul 31, 1:53 AM)30.14 "Hg (Jul 31, 1:53 AM)
Low58 °F (Jul 17, 5:53 AM)27% (Jul 25, 1:53 PM)29.58 "Hg (Jul 21, 5:53 PM)
Average78 °F61%29.91 "Hg
* Reported Jul 16 2:53 PM — Jul 31 2:53 PM, Paterson, Weather by CustomWeather, © 2015

Note: Actual official high and low records may vary slightly from our data, if they occured in-between our weather recording intervals... More about our weather records

Advertising

Paterson weather history for previous 24 hours

 ConditionsComfort  
Time TempWeatherWind HumidityBarometerVisibility
2:53 PM
Fri, Jul 31
89 °FPassing clouds.10 mph30%29.85 "Hg10 mi
1:53 PM87 °FScattered clouds.9 mph36%29.86 "Hg10 mi
12:53 PM86 °FPassing clouds.7 mph37%29.88 "Hg10 mi
11:53 AM85 °FSunny.9 mph39%29.89 "Hg10 mi
10:53 AM83 °FSunny.8 mph43%29.90 "Hg10 mi
9:53 AM81 °FSunny.7 mph49%29.90 "Hg10 mi
8:53 AM76 °FSunny.No wind60%29.90 "Hg10 mi
7:53 AM72 °FSunny.3 mph68%29.90 "Hg10 mi
6:53 AM68 °FSunny.No wind82%29.89 "Hg10 mi
5:53 AM67 °FClear.No wind87%29.88 "Hg10 mi
4:53 AM67 °FClear.No wind87%29.88 "Hg10 mi
3:53 AM70 °FClear.No wind87%29.87 "Hg9 mi
2:53 AM72 °FFog.No wind91%29.86 "Hg4 mi
1:53 AM73 °FFog.No wind94%29.86 "Hg4 mi
12:53 AM74 °FFog.No wind91%29.86 "Hg5 mi
11:53 PM
Thu, Jul 30
75 °FFog.No wind90%29.86 "Hg6 mi
10:53 PM76 °FClear.3 mph88%29.85 "Hg7 mi
9:53 PM77 °FClear.No wind85%29.85 "Hg8 mi
8:53 PM78 °FPartly sunny.3 mph82%29.83 "Hg9 mi
7:53 PM78 °FPartly sunny.5 mph82%29.83 "Hg8 mi
6:53 PM79 °FPartly sunny.6 mph79%29.82 "Hg9 mi
5:53 PM79 °FSunny.3 mph82%29.81 "Hg10 mi
4:53 PM79 °FScattered clouds.5 mph84%29.80 "Hg10 mi
3:53 PM84 °FLight rain. Broken clouds.5 mph72%29.80 "Hg10 mi
Weather by CustomWeather, © 2015

See weather overviewHow to use our weather pages